Miscellaneous Local Product
Issued by NWS North Platte, NE

Home | Current Version | Previous Version | Text Only | Print | Product List | Glossary On
Versions: 1 2 3 4 5 6 7 8 9 10 11 12 13 14 15 16 17 18 19 20 21 22 23 24 25 26 27 28 29 30 31 32 33 34 35 36 37 38 39 40 41 42 43 44 45 46 47 48 49 50
724
AXUS43 KLBF 281310
MISLBF


WESTERN AND NORTH CENTRAL NEBRASKA HOURLY WEATHER ROUNDUP
NATIONAL WEATHER SERVICE NORTH PLATTE NE
800 AM CDT SUN AUG 28 2016

NOTE: "FAIR" INDICATES FEW OR NO CLOUDS BELOW 12,000 FEET WITH NO
SIGNIFICANT WEATHER AND/OR OBSTRUCTIONS TO VISIBILITY.

NOTE: STATIONS NOT REPORTING VARIABLES SUCH AS SKY/WEATHER OR
PRESSURE ARE PROVIDED BY RAWS AND APRS NETWORKS AND ARE NOT UNDER
NATIONAL WEATHER SERVICE QUALITY CONTROL.

...OBSERVATIONS IN AND NEAR THE EASTERN PANHANDLE OF NEBRASKA...

CITY           SKY/WX    TMP DP  RH WIND       PRES   REMARKS
PINE RIDGE     CLEAR     62  59  90 SW7       30.01R
CHADRON        CLEAR     56  51  84 CALM      30.01R
ALLIANCE       CLEAR     54  53  97 W3        30.06S
SIDNEY         CLEAR     55  52  89 SW6       30.12R
CRESCENT LAKE    N/A     60  58  94 CALM        N/A
$$

...OBSERVATIONS IN NORTHERN NEBRASKA AND FAR SOUTHERN SOUTH DAKOTA...

CITY           SKY/WX    TMP DP  RH WIND       PRES   REMARKS
WINNER         FAIR      72  65  78 SW20G25   29.97R
THEDFORD       CLEAR     66  65  95 S9        30.07R
AINSWORTH      CLEAR     67  66  97 S12       30.03S
O`NEILL        SUNNY     69  66  92 S8        30.05S
ORD            MOSUNNY   63  61  93 E3        30.05S FOG
BROKEN BOW     MOSUNNY   64  64 100 CALM      30.06S FOG
VALENTINE NWR    N/A     63  62  97 S7          N/A
BUTTE            N/A     67  64  91 S6          N/A
HALSEY           N/A     65  64  95 CALM        N/A
EWING            N/A     67  65  95 S3          N/A
$$

...OBSERVATIONS IN SOUTHWEST NEBRASKA AND FAR NORTHEAST COLORADO...

CITY           SKY/WX    TMP DP  RH WIND       PRES   REMARKS
WRAY           FAIR     N/A N/A N/A CALM      30.11S
HOLYOKE        FAIR      59  55  88 SW5       30.11S
IMPERIAL       CLEAR     61  59  93 SW3       30.10R
OGALLALA       CLEAR     62  60  93 CALM      30.08S FOG
NORTH PLATTE   CLEAR     62  61  96 SE3       30.07R FOG
MCCOOK         PTCLDY    63  62  97 S3        30.09R
LEXINGTON      PTCLDY    66  64  92 CALM      30.07R
STAPLETON        N/A     63  62  97 CALM        N/A
GOTHENBURG       N/A     65  60  83 CALM        N/A
CALLAWAY         N/A     62  61  98 SE6         N/A
$$

...OBSERVATIONS IN CENTRAL LINCOLN COUNTY AREA...

CITY           SKY/WX    TMP DP  RH WIND       PRES   REMARKS
N.P. AIRPORT   CLEAR     62  61  96 SE3       30.07R FOG
N.P. DOWNTOWN    N/A     66  63  91 CALM        N/A
N.P. SOUTHEAST   N/A     64  62  94 CALM        N/A
N.P. HILLCREST   N/A     65  63  94 SE5         N/A
$$

...SOME OBSERVATIONS FROM AROUND THE REGION...

CITY           SKY/WX    TMP DP  RH WIND       PRES   REMARKS
DENVER         CLOUDY    62  44  51 W7        30.17R
LARAMIE        CLOUDY    46  30  53 S9        30.30R
CHEYENNE       CLEAR     54  32  43 W13       30.21R
SCOTTSBLUFF    CLEAR     55  53  93 CALM      30.08R
RAPID CITY     CLEAR     52  49  89 CALM      29.95R
BISMARCK       CLEAR     59  58  96 NE6       29.91R
PIERRE         CLEAR     66  64  93 SE7       29.92R
SIOUX FALLS    MOSUNNY   67  65  93 SE7       30.08S
OMAHA          PTSUNNY   71  66  84 SE6       30.09S
GRAND ISLAND   MOSUNNY   69  67  93 S9        30.08R
KANSAS CITY    MOSUNNY   74  70  87 S3        30.12R
WICHITA        PTSUNNY   73  70  90 SE7       30.09R
OKLAHOMA CITY  CLOUDY    72  70  93 SE5       30.10R
DALLAS         MOSUNNY   76  71  85 CALM      30.06R
AMARILLO       CLOUDY    67  61  81 S6        30.15R
DODGE CITY     MOCLDY    65  62  90 S3        30.10R
HAYS           CLOUDY    66  57  72 SE5       30.08S
GOODLAND       MOCLDY    61  54  77 S6        30.11R
$$




USA.gov is the U.S. government's official web portal to all federal, state and local government web resources and services.